Tracking 19575 objects as of 19-Feb-2019
HD Live streaming from Space Station
objects crossing your sky now

LEMUR 2 ROBMOORE

Track LEMUR 2 ROBMOORE now!
10-day predictions
LEMUR 2 ROBMOORE is classified as:


NORAD ID: 42754
Int'l Code: 2017-019D
Perigee: 476.4 km
Apogee: 490.4 km
Inclination: 51.6 °
Period: 94.1 minutes
Semi major axis: 6854 km
RCS: Unknown
Launch date: April 18, 2017
Source: United States (US)
Launch site: AIR FORCE EASTERN TEST RANGE (AFETR)
aabbcc
Your satellite tracking list
Your tracking list is empty




NASA's NSSDC Master Catalog

Two Line Element Set (TLE):
1 42754U 17019D   19050.01032111  .00001777  00000-0  72880-4 0  9995
2 42754  51.6424 345.2210 0010226  16.7709 343.3607 15.29854978 94865
Source of the keplerian elements: AFSPC